sat.trackr.live / text

‹ back to catalog

O3B FM14

NORAD 43233 · 2018-024C

PAYLOAD ACTIVE UNKNOWN

§ Identity

Operator
Country
O3B
Launch date
2018-03-09
Launch site
FRGUI
Launch vehicle
Mass (kg)
RCS (m²)

Purposes: comms

External: N2YO · Heavens-Above · Gunter

§ Orbital elements

Epoch: 2026-09-17T03:15:10.967040Z

Period
287.93 min
Inclination
0.0585°
Eccentricity
0.0002823
Mean motion
5.00115891 rev/d
Perigee alt
8,061.8 km
Apogee alt
8,070.0 km
Semi-major
14,444.0 km
B*
0.0000e+0
RAAN
0.6907°
Arg perigee
173.8907°
Mean anomaly
185.4236°
Rev number
15,555

§ Raw data

O3B FM141 43233U 18024C   26260.13554360 -.00000028  00000+0  00000+0 0  99922 43233   0.0585   0.6907 0002823 173.8907 185.4236  5.00115891155557

JSON: /api/v1/satellites/43233 · /tle

For live sub-satellite position, see the globe view (requires WebGL).

§ Visibility from observer

Set your observer location to see the next 7 days of passes ≥ 10°. The values pass through the URL so the page stays shareable.

No JS? Fill the form by hand. The geolocation button needs JavaScript.